This demonstration page uses our WeatherBlox Daily Observations layout. Learn more.

Left ArrowRight Arrow

Hourly Observations for October 9, 2016

Temp ( °F °C ) Dew Point ( °F °C ) Humidity (%) Winds ( mph kmh ) Pressure ( in mb ) Visibility ( mi km ) Precip ( " mm )
12:16 am 00:16 Clear 45 7 43 6 93 93 N N/A 30.3 1026 10 16.0934 N/A
12:37 am 00:37 Clear 45 7 43 6 93 93 N N/A 30.3 1026 10 16.0934 N/A
12:56 am 00:56 Clear 45 7 43 6 93 93 N N/A 30.3 1026 10 16.0934 N/A
1:16 am 01:16 Clear 45 7 43 6 93 93 N N/A 30.3 1026 10 16.0934 N/A
1:37 am 01:37 Clear 45 7 43 6 93 93 N N/A 30.3 1026 10 16.0934 N/A
1:56 am 01:56 Clear 45 7 43 6 93 93 N N/A 30.3 1026 10 16.0934 N/A
2:16 am 02:16 Clear 45 7 43 6 93 93 N N/A 30.3 1026 10 16.0934 N/A
2:37 am 02:37 Clear 45 7 43 6 93 93 W 3 6 30.3 1026 10 16.0934 N/A
2:56 am 02:56 Clear 45 7 41 5 87 87 N N/A 30.3 1026 10 16.0934 N/A
3:16 am 03:16 Clear 43 6 41 5 93 93 N N/A 30.3 1026 10 16.0934 N/A
3:37 am 03:37 Clear 45 7 43 6 93 93 N N/A 30.3 1026 10 16.0934 N/A
3:56 am 03:56 Clear 43 6 41 5 93 93 N N/A 30.3 1026 10 16.0934 N/A
4:16 am 04:16 Clear 43 6 41 5 93 93 N N/A 30.3 1026 10 16.0934 N/A
4:37 am 04:37 Clear 43 6 41 5 93 93 N N/A 30.3 1026 10 16.0934 N/A
4:56 am 04:56 Clear 43 6 41 5 93 93 N N/A 30.3 1026 10 16.0934 N/A
5:16 am 05:16 Clear 41 5 41 5 100 100 N N/A 30.33 1027 10 16.0934 N/A
5:36 am 05:36 Clear 41 5 41 5 100 100 N N/A 30.33 1027 10 16.0934 N/A
5:56 am 05:56 Clear 41 5 41 5 100 100 N N/A 30.33 1027 10 16.0934 N/A
6:16 am 06:16 Clear 41 5 41 5 100 100 N N/A 30.33 1027 10 16.0934 N/A
6:36 am 06:36 Clear 41 5 41 5 100 100 N N/A 30.36 1028 10 16.0934 N/A
6:56 am 06:56 Clear 41 5 39 4 93 93 N N/A 30.36 1028 10 16.0934 N/A
7:16 am 07:16 Mostly Cloudy 41 5 41 5 100 100 N N/A 30.36 1028 1 1.60934 N/A
7:36 am 07:36 Clear 39 4 39 4 100 100 N N/A 30.36 1028 3 4.82802 N/A
7:56 am 07:56 Sunny 39 4 39 4 100 100 N N/A 30.36 1028 2.5 4.02335 N/A
8:17 am 08:17 Sunny 41 5 41 5 100 100 N N/A 30.39 1029 7 11.26538 N/A
8:36 am 08:36 Sunny 43 6 43 6 100 100 N N/A 30.36 1028 7 11.26538 N/A
8:56 am 08:56 Sunny 45 7 43 6 93 93 N N/A 30.36 1028 10 16.0934 N/A
9:17 am 09:17 Sunny 48 9 43 6 82 82 N N/A 30.36 1028 10 16.0934 N/A
9:36 am 09:36 Sunny 50 10 45 7 82 82 SE 5 7 30.36 1028 10 16.0934 N/A
9:56 am 09:56 Sunny 52 11 45 7 77 77 ESE 5 7 30.36 1028 10 16.0934 N/A
10:17 am 10:17 Sunny 54 12 45 7 72 72 SSE 5 7 30.39 1029 10 16.0934 N/A
10:36 am 10:36 Sunny 54 12 45 7 72 72 SSE 8 13 30.36 1028 10 16.0934 N/A
10:56 am 10:56 Sunny 55 13 45 7 67 67 SE 5 7 30.39 1029 10 16.0934 N/A
11:16 am 11:16 Sunny 55 13 43 6 63 63 S 3 6 30.39 1029 10 16.0934 N/A
11:36 am 11:36 Sunny 57 14 45 7 63 63 S 6 9 30.39 1029 10 16.0934 N/A
11:56 am 11:56 Sunny 59 15 45 7 59 59 ESE 6 9 30.36 1028 10 16.0934 N/A
12:16 pm 12:16 Sunny 61 16 45 7 55 55 N N/A 30.36 1028 7 11.26538 N/A
12:36 pm 12:36 Sunny 63 17 45 7 52 52 S 3 6 30.33 1027 10 16.0934 N/A
12:56 pm 12:56 Sunny 63 17 45 7 52 52 N N/A 30.33 1027 10 16.0934 N/A
1:16 pm 13:16 Sunny 63 17 45 7 52 52 N N/A 30.33 1027 10 16.0934 N/A
1:36 pm 13:36 Sunny 64 18 45 7 49 49 SSW 3 6 30.33 1027 10 16.0934 N/A
1:56 pm 13:56 Sunny 64 18 45 7 49 49 N N/A 30.3 1026 10 16.0934 N/A
2:16 pm 14:16 Sunny 66 19 45 7 46 46 SSE 3 6 30.3 1026 10 16.0934 N/A
2:37 pm 14:37 Sunny 66 19 46 8 49 49 N N/A 30.3 1026 10 16.0934 N/A
2:56 pm 14:56 Sunny 68 20 46 8 46 46 N N/A 30.3 1026 10 16.0934 N/A
3:16 pm 15:16 Sunny 68 20 46 8 46 46 WSW 5 7 30.3 1026 10 16.0934 N/A
3:37 pm 15:37 Sunny 68 20 46 8 46 46 WSW 6 9 30.3 1026 10 16.0934 N/A
3:56 pm 15:56 Sunny 68 20 46 8 46 46 W 3 6 30.3 1026 10 16.0934 N/A
4:16 pm 16:16 Sunny 70 21 46 8 43 43 SW 3 6 30.3 1026 10 16.0934 N/A
4:37 pm 16:37 Sunny 70 21 46 8 43 43 SW 5 7 30.27 1025 10 16.0934 N/A
4:56 pm 16:56 Sunny 70 21 46 8 43 43 N N/A 30.27 1025 10 16.0934 N/A
5:16 pm 17:16 Sunny 70 21 46 8 43 43 N N/A 30.27 1025 10 16.0934 N/A
5:37 pm 17:37 Sunny 70 21 46 8 43 43 N N/A 30.27 1025 10 16.0934 N/A
5:56 pm 17:56 Sunny 68 20 46 8 46 46 N N/A 30.27 1025 10 16.0934 N/A
6:16 pm 18:16 Sunny 68 20 46 8 46 46 N N/A 30.27 1025 10 16.0934 N/A
6:37 pm 18:37 Sunny 66 19 46 8 49 49 N N/A 30.27 1025 10 16.0934 N/A
6:56 pm 18:56 Sunny 64 18 46 8 52 52 N N/A 30.27 1025 10 16.0934 N/A
7:16 pm 19:16 Clear 63 17 46 8 56 56 N N/A 30.27 1025 10 16.0934 N/A
7:37 pm 19:37 Clear 59 15 48 9 68 68 N N/A 30.27 1025 10 16.0934 N/A
7:56 pm 19:56 Clear 55 13 48 9 77 77 E 3 6 30.3 1026 10 16.0934 N/A
8:16 pm 20:16 Clear 54 12 48 9 82 82 E 3 6 30.3 1026 10 16.0934 N/A
8:36 pm 20:36 Clear 54 12 48 9 82 82 E 6 9 30.3 1026 10 16.0934 N/A
8:56 pm 20:56 Clear 54 12 48 9 82 82 E 5 7 30.33 1027 7 11.26538 N/A
9:17 pm 21:17 Clear 54 12 48 9 82 82 ESE 3 6 30.33 1027 7 11.26538 N/A
9:36 pm 21:36 Clear 54 12 46 8 77 77 ESE 3 6 30.33 1027 10 16.0934 N/A
9:56 pm 21:56 Clear 54 12 46 8 77 77 E 7 11 30.33 1027 7 11.26538 N/A
10:17 pm 22:17 Clear 54 12 46 8 77 77 E 12 19 30.33 1027 5 8.0467 N/A
10:36 pm 22:36 Mostly Cloudy 55 13 45 7 67 67 ESE 9 15 30.33 1027 0.5 0.80467 N/A
10:56 pm 22:56 Mostly Cloudy 54 12 45 7 72 72 ESE 6 9 30.33 1027 0.5 0.80467 N/A
11:17 pm 23:17 Mostly Cloudy 54 12 45 7 72 72 ESE 7 11 30.33 1027 0.5 0.80467 N/A
11:36 pm 23:36 Mostly Cloudy 52 11 45 7 77 77 ESE 5 7 30.33 1027 0.5 0.80467 N/A
11:56 pm 23:56 Mostly Cloudy 52 11 45 7 77 77 ESE 5 7 30.33 1027 0.5 0.80467 N/A

Powered by AerisWeather